Regional Weather Roundup
Issued by NWS State College, PA

Home | Current Version | Previous Version | Graphics & Text | Print | Product List | Glossary Off
Versions: 1 2 3 4 5 6 7 8 9 10 11 12 13 14 15 16 17 18 19 20 21 22 23 24 25 26 27 28 29 30 31 32 33 34 35 36 37 38 39 40 41 42 43 44 45 46 47 48 49 50

000
ASUS41 KCTP 201810
RWRCTP

REGIONAL WEATHER ROUNDUP
NATIONAL WEATHER SERVICE STATE COLLEGE PA
200 PM EDT FRI APR 20 2018

Note: "fair" indicates few or no clouds below 12,000 feet with no
significant weather and/or obstructions to visibility.

* = STATION THAT DOES NOT REPORT PRECIPITATION /E.G. RAIN...SNOW...ETC/
    THUNDER OR FOG.

PAZ002>004-007>009-013>016-020>023-029>032-201900-
WESTERN PENNSYLVANIA

CITY           SKY/WX    TMP DP  RH WIND       PRES   REMARKS
ERIE           FAIR      42  25  50 W13       30.44S
MEADVILLE      FAIR      43  25  49 N13G21    30.39S
FRANKLIN*      FAIR      45  23  42 N10G22    30.38R
NEW CASTLE     FAIR      48  23  37 NW12      30.41S
BEAVER COUNTY  SUNNY     48  23  37 NW13G18   30.40S
BUTLER*        FAIR      47  25  42 NW9G21    30.39S
PITTSBURGH INT FAIR      50  24  36 N13G21    30.39S
PITTSBURGH     FAIR      48  25  40 NW14G23   30.37F
INDIANA*       SUNNY     48  25  40 NW13      30.38S
LATROBE        SUNNY     46  25  42 W7G20     30.38S
WASHINGTON CO* FAIR      49  24  37 N15       30.41F
$$

PAZ004>006-010>012-017>019-024>028-033>037-041-042-045-046-049>053-201900-
CENTRAL PENNSYLVANIA

CITY           SKY/WX    TMP DP  RH WIND       PRES   REMARKS
BRADFORD       FAIR      40  23  50 NW15      30.30S
DUBOIS         FAIR      45  24  43 W17G24    30.30S
CLEARFIELD     FAIR      47  24  40 N13G25    30.30S
JOHNSTOWN      FAIR      44  26  49 NW18G29   30.29F
ALTOONA        FAIR      50  28  42 NW17G24   30.30S
STATE COLLEGE  SUNNY     48  23  37 NW13G21   30.27F
WILLIAMSPORT   FAIR      48  22  35 NW16      30.29F
SELINSGROVE    FAIR      50  28  42 N14G21    30.28F
FT INDIANTOWN  MOSUNNY   49  24  37 N9G17     30.26S
CAPITAL CITY   FAIR      53  24  32 N9G20     30.27F
HARRISBURG     FAIR      52  28  39 NW13G21   30.26F
YORK           FAIR      51  27  39 NW13G24   30.27F
$$

PAZ038>040-043-044-047-048-054-055-060>062-067>071-201900-
EASTERN PENNSYLVANIA

CITY           SKY/WX    TMP DP  RH WIND       PRES   REMARKS
SCRANTON       CLOUDY    40  24  53 NW15G22   30.27R
MOUNT POCONO   FAIR      36  22  56 NW25G33   30.18R
ALLENTOWN      FAIR      48  24  39 NW12      30.24S
QUAKERTOWN*    CLEAR     48  27  43 NW10G21   30.24S
READING        FAIR      49  28  44 NW16G24   30.25S
LANCASTER      FAIR      50  30  46 NW14G25   30.25F
COATESVILLE    FAIR      48  27  43 NW17G25   30.25F
POTTSTOWN      FAIR      49  26  41 NW13G20   30.26S
BLUE BELL      FAIR      46  28  49 NW12G23   30.25S
DOYLESTOWN     FAIR      49  26  41 NW12G21   30.22S
WILLOW GROVE   NOT AVBL
NORTH PHILA    FAIR      52  26  36 NW17G30   30.25R
PHILADELPHIA   FAIR      50  23  34 NW15G26   30.25S
$$



USA.gov is the U.S. government's official web portal to all federal, state and local government web resources and services.